Location: Clermont
(50.2608°N, 4.3172°E)
Time: 06:32:05
(UTC+00:00)

Cosmos 1743 - Pass Details

Date: 13 August 2020
Orbit: 509 x 528 km, 82.5° (Epoch: 23 September)

Event Time Altitude Azimuth Distance (km) Brightness Sun altitude
Exits shadow 23:03:23 60° 330° (NNW) 614 3.2 -24.7°
Drops below altitude 10° 23:06:48 10° 6° (N) 1,787 6.4 -24.8°
Sets 23:08:58 0° 9° (N) 2,682 7.5 -24.9°
